Вернуться в каталог

ONEWEB-0579

АктивенСвязьPO
NORAD 56068·PAYLOAD·🇬🇧 United Kingdom

Запущен Mar 26, 2023 с Satish Dhawan Space Centre

Loading…

Ближайшие Пролёты (ближайшие 24 часа)

TLE

СвежийSource: CelesTrak SupGP

Эпоха: Sep 14, 2026, 17:25 UTC

1 56068C 23043Y   26257.72583750  .00001006  00000+0  24395-2 0  2574
2 56068  87.9283 226.1516 0002238  76.9528 316.7897 13.21822493    16

Отслеживайте ONEWEB-0579 в реальном времени с AllMySat

Download on the App Store